Location: *
(58.4167°N, 22.5000°E)
Time: 11:37:24
(UTC+00:00)

Cosmos 2219 - Pass Details

Date: 22 September 2019
Orbit: 834 x 860 km, 71.1° (Epoch: 17 October)

Event Time Altitude Azimuth Distance (km) Brightness Sun altitude
Rises 18:11:04 0° 208° (SSW) 3,428 6.4 -13.6°
Reaches altitude 10° 18:13:31 10° 207° (SSW) 2,495 5.7 -13.9°
Maximum altitude 18:19:14 76° 123° (ESE) 891 3.1 -14.6°
Drops below altitude 10° 18:24:59 10° 39° (NE) 2,500 5.5 -15.3°
Sets 18:27:26 0° 38° (NE) 3,437 6.3 -15.5°
